Tracking 35274 objects as of 10-Sep-2026
HD Live streaming from Space Station
objects crossing your sky now

COSMOS 1408 DEB


COSMOS 1408 DEB is no longer on orbit


NORAD ID: 50509
Int'l Code: 1982-092AGG
Launch date: September 16, 1982
Source: Commonwealth of Independent States (former USSR) (CIS)
Launch site: PLESETSK MISSILE AND SPACE COMPLEX (PKMTR)
Decay date: 2022-04-11

Note: This is SATELLITE DEBRIS
Your satellite tracking list
Your tracking list is empty




NASA's NSSDC Master Catalog

Two Line Element Set (TLE):
1 50509U 82092AGG 22096.11059012  .01942420  00000-0  17271-1 0  9999
2 50509  82.6012 345.4673 0043511 345.0843  14.9128 15.63959141 16289
Source of the keplerian elements: AFSPC